Погода в Энгельсе

Россия / Саратовская область     51°29′07″N   46°07′36″E
темп.,
°C
ветер,
м/с
пор.,
м/с
влажн.,
%
обл.,
%
осадки,
мм/ч
давл.,
гПа
погр.,
м
6 августа, пт
пт601:00+19св3352100 0.0 101623
04:00+18св2258100 0.0 101620
07:00+19всв12566 0.0 101760
10:00+24всв22415 0.0 1017623
13:00+27в12345 0.0 10161618
16:00+27в233264 0.0 10151700
19:00+27всв44345 0.0 1015891
22:00+22всв46465 0.0 101576
7 августа, сб
сб701:00+20всв344783 0.0 101545
04:00+19всв3451100 0.0 101557
07:00+19всв3647100 0.0 1016144
10:00+26в343367 0.0 1016599
13:00+29в452759 0.0 10151378
16:00+31вюв442454 0.0 10141664
19:00+30в46265 0.0 1014415
22:00+24в4737100 0.0 101497
8 августа, вс
вс801:00+22в3741100 0.0 1015115
04:00+20всв344581 0.0 101667
07:00+21св244480 0.0 1017133
10:00+29юв5727100 0.0 1017723
13:00+32вюв5623100 0.0 10161646
16:00+32в5623100 0.0 10161874
19:00+31в4729100 0.0 1016210
22:00+26в41037100 0.0 1017176
9 августа, пн
пн901:00+25в4940100 0.0 1018173
04:00+24в4844100 0.0 1018132
07:00+25всв4943100 0.0 1018248
10:00+29вюв5731100 0.0 1019793
13:00+32в5725100 0.0 10181330
16:00+32в5622100 0.0 10181627
19:00+31в4726100 0.0 1017225
22:00+27в51031100 0.0 1017171
10 августа, вт
вт1001:00+26в3734100 0.0 1017127
04:00+25в373848 0.0 1017165
07:00+24св37415 0.0 1017180
10:00+30в68285 0.0 1016899
13:00+34в672467 0.0 10141542
16:00+35в6722100 0.0 10131880
19:00+33в5824100 0.0 1012623
22:00+28в51131100 0.0 1012207